User: anonymous   Login
Location: Unspecified
(0.0000°N, 0.0000°E)
Time: 11:40:58
(UTC+02:00)
Language:

Delta 2 Rocket - Orbit

View from above orbital plane
View from above orbital plane
View from above satellite
View from above satellite

Ground track
Ground track

The orbit data is extracted from the following two-line orbital elements,

1 20453U 90008B   16237.81605421  .00000814  00000-0  49405-4 0  9996
2 20453  35.6261 170.1779 0294383 225.2791 132.3602 14.82001345404191
Epoch (UTC): 24 August 2016 19:35:07
Eccentricity: 0.0294383
inclination: 35.6261°
perigee height: 417 km
apogee height: 829 km
right ascension of ascending node: 170.1779°
argument of perigee: 225.2791°
revolutions per day: 14.82001345
mean anomaly at epoch: 132.3602°
orbit number at epoch: 40419

The dashed part of the orbit path shows where the satellite is in the earth's shadow,  

DLR